Auburn, IN

3:32 PM EDT on July 26, 2017 (GMT -0400)
Auburn

Weather History for KGWB - October, 2012

Change the Weather History Date:

Friday, October 5, 2012

  Actual Average (KFWA) Record (KFWA)
Temperature  
Mean Temperature 54 °F -  
Max Temperature 66 °F 68 °F 89 °F (1900)
Min Temperature 41 °F 46 °F 28 °F (1965)
Degree Days  
Heating Degree Days 12    
Growing Degree Days 4 (Base 50)    
Moisture  
Dew Point 46 °F    
Average Humidity 84    
Maximum Humidity 94    
Minimum Humidity 64    
Precipitation  
Precipitation 0.35 in - - ()
Sea Level Pressure  
Sea Level Pressure 30.08 in    
Wind  
Wind Speed 7 mph (WSW)    
Max Wind Speed 18 mph    
Max Gust Speed 23 mph    
Visibility 9 miles    
Events Rain    
Averages and records for this station are not official NWS values.
T = Trace of Precipitation, MM = Missing Value Source: NWS Daily Summary

Daily Weather History Graph

Daily Weather History Graph

Search for Another Location

Airport or City:

Trip Planner

Search our weather history database for the weather conditions in past years. The results will help you decide how hot, cold, wet, or windy it might be!

Date:

Astronomy

Oct. 05, 2012 Rise Set
Actual Time 7:41 AM EDT 7:14 PM EDT
Civil Twilight 7:14 AM EDT 7:42 PM EDT
Nautical Twilight 6:42 AM EDT 8:14 PM EDT
Astronomical Twilight 6:09 AM EDT 8:46 PM EDT
Moon 10:34 PM EDT (10/5) 12:51 PM EDT (10/5)
Length of Visible Light 12h 28m
Length of Day
11h 32m
Waning Gibbous, 74% of the Moon is Illuminated
Oct 5
Waning Gibbous
Oct 8
Last Quarter
Oct 15
New
Oct 21
First Quarter
Oct 29
Full

Hourly Weather History & Observations

Time (EDT) Temp. Windchill Dew Point Humidity Pressure Visibility Wind Dir Wind Speed Gust Speed Precip Events Conditions
12:15 AM 66.2 °F - 53.6 °F 64% 30.08 in 10.0 mi West 8.1 mph - N/A Rain Rain
12:35 AM 62.6 °F - 55.4 °F 77% 30.09 in 10.0 mi WNW 13.8 mph 23.0 mph N/A Rain Light Rain
12:55 AM 60.8 °F - 55.4 °F 82% 30.09 in 10.0 mi West 5.8 mph 10.4 mph N/A   Light Drizzle
1:15 AM 60.8 °F - 55.4 °F 82% 30.09 in 10.0 mi WSW 4.6 mph - N/A   Drizzle
1:35 AM 60.8 °F - 55.4 °F 82% 30.07 in 10.0 mi WSW 3.5 mph - N/A   Mostly Cloudy
1:55 AM 59.0 °F - 55.4 °F 88% 30.07 in 10.0 mi West 4.6 mph - N/A   Scattered Clouds
2:15 AM 59.0 °F - 55.4 °F 88% 30.08 in 10.0 mi West 4.6 mph - N/A   Scattered Clouds
2:35 AM 59.0 °F - 55.4 °F 88% 30.09 in 10.0 mi West 5.8 mph - N/A   Mostly Cloudy
2:55 AM 59.0 °F - 53.6 °F 82% 30.09 in 10.0 mi West 5.8 mph - N/A   Overcast
3:15 AM 59.0 °F - 53.6 °F 82% 30.09 in 10.0 mi West 9.2 mph - N/A   Overcast
3:35 AM 57.2 °F - 50.0 °F 77% 30.08 in 10.0 mi WNW 9.2 mph - N/A   Overcast
3:55 AM 55.4 °F - 50.0 °F 82% 30.08 in 10.0 mi West 6.9 mph - N/A   Overcast
4:15 AM 55.4 °F - 50.0 °F 82% 30.10 in 10.0 mi WNW 11.5 mph - N/A   Overcast
4:35 AM 55.4 °F - 50.0 °F 82% 30.10 in 10.0 mi West 9.2 mph - N/A   Overcast
4:55 AM 55.4 °F - 46.4 °F 72% 30.12 in 10.0 mi WNW 18.4 mph - N/A   Overcast
5:15 AM 53.6 °F - 46.4 °F 77% 30.13 in 10.0 mi WNW 13.8 mph 19.6 mph N/A   Overcast
5:35 AM 53.6 °F - 46.4 °F 77% 30.12 in 10.0 mi West 9.2 mph - N/A   Overcast
5:55 AM 53.6 °F - 46.4 °F 77% 30.12 in 10.0 mi West 6.9 mph - N/A   Overcast
6:15 AM 53.6 °F - 46.4 °F 77% 30.11 in 10.0 mi West 8.1 mph - N/A   Mostly Cloudy
6:35 AM 51.8 °F - 46.4 °F 82% 30.11 in 10.0 mi WSW 4.6 mph - N/A Rain Light Rain
6:55 AM 51.8 °F - 46.4 °F 82% 30.11 in 10.0 mi WSW 4.6 mph - N/A Rain Rain
7:15 AM 51.8 °F - 48.2 °F 88% 30.12 in 10.0 mi WSW 5.8 mph - 0.01 in   Scattered Clouds
7:35 AM 51.8 °F - 48.2 °F 88% 30.10 in 10.0 mi SSW 3.5 mph - 0.01 in   Scattered Clouds
7:55 AM 51.8 °F - 48.2 °F 88% 30.12 in 10.0 mi WSW 3.5 mph - 0.01 in Rain Rain
8:15 AM 51.8 °F - 48.2 °F 88% 30.12 in 7.0 mi WSW 5.8 mph - 0.01 in Rain Light Rain
8:35 AM 50.0 °F - 48.2 °F 94% 30.12 in 7.0 mi WSW 6.9 mph - 0.02 in Rain Light Rain
8:55 AM 50.0 °F - 46.4 °F 87% 30.12 in 7.0 mi SW 5.8 mph - 0.03 in Rain Rain
9:35 AM 50.0 °F - 46.4 °F 87% 30.12 in 5.0 mi WSW 5.8 mph - 0.04 in Rain Light Rain
9:55 AM 50.0 °F - 46.4 °F 87% 30.11 in 7.0 mi WSW 6.9 mph - 0.05 in Rain Light Rain
10:15 AM 50.0 °F - 46.4 °F 87% 30.11 in 10.0 mi WSW 5.8 mph - N/A   Mostly Cloudy
10:35 AM 50.0 °F - 46.4 °F 87% 30.12 in 10.0 mi WSW 5.8 mph - N/A   Overcast
10:55 AM 50.0 °F - 46.4 °F 87% 30.11 in 10.0 mi WSW 4.6 mph - N/A Rain Rain
11:15 AM 50.0 °F - 46.4 °F 87% 30.11 in 10.0 mi West 5.8 mph - N/A   Overcast
11:35 AM 50.0 °F - 46.4 °F 87% 30.11 in 10.0 mi West 3.5 mph - N/A   Overcast
11:55 AM 50.0 °F - 44.6 °F 82% 30.12 in 10.0 mi West 5.8 mph - N/A   Overcast
12:15 PM 50.0 °F - 44.6 °F 82% 30.12 in 10.0 mi SW 6.9 mph - N/A   Overcast
12:35 PM 50.0 °F - 44.6 °F 82% 30.11 in 10.0 mi SW 4.6 mph - N/A   Overcast
1:15 PM 50.0 °F - 44.6 °F 82% 30.10 in 10.0 mi SW 4.6 mph - N/A   Overcast
1:35 PM 50.0 °F - 44.6 °F 82% 30.09 in 10.0 mi WSW 6.9 mph - N/A   Overcast
1:55 PM 50.0 °F - 44.6 °F 82% 30.10 in 10.0 mi WSW 5.8 mph - N/A Rain Rain
2:15 PM 50.0 °F - 44.6 °F 82% 30.09 in 10.0 mi SW 6.9 mph - N/A   Overcast
2:35 PM 50.0 °F - 44.6 °F 82% 30.08 in 10.0 mi WSW 4.6 mph - N/A   Overcast
2:55 PM 50.0 °F - 42.8 °F 76% 30.07 in 10.0 mi West 6.9 mph - N/A   Overcast
3:15 PM 50.0 °F - 42.8 °F 76% 30.05 in 10.0 mi West 5.8 mph - N/A   Overcast
3:35 PM 50.0 °F - 42.8 °F 76% 30.06 in 10.0 mi WSW 8.1 mph - N/A   Overcast
3:55 PM 50.0 °F - 42.8 °F 76% 30.07 in 10.0 mi WSW 6.9 mph - N/A Rain Light Rain
4:15 PM 50.0 °F - 42.8 °F 76% 30.06 in 10.0 mi West 9.2 mph - N/A   Overcast
4:35 PM 50.0 °F - 41.0 °F 71% 30.08 in 10.0 mi WSW 6.9 mph - N/A   Overcast
4:55 PM 48.2 °F - 42.8 °F 82% 30.05 in 10.0 mi WSW 6.9 mph - 0.01 in Rain Rain
5:15 PM 48.2 °F - 42.8 °F 82% 30.05 in 10.0 mi WSW 3.5 mph - N/A   Overcast
5:35 PM 48.2 °F - 42.8 °F 82% 30.04 in 10.0 mi West 4.6 mph - 0.01 in Rain Rain
5:55 PM 46.4 °F 44.3 °F 44.6 °F 93% 30.04 in 7.0 mi SW 4.6 mph - 0.01 in Rain Light Rain
6:15 PM 46.4 °F 45.2 °F 42.8 °F 87% 30.05 in 7.0 mi West 3.5 mph - 0.03 in Rain Light Rain
6:35 PM 46.4 °F 45.2 °F 44.6 °F 93% 30.06 in 7.0 mi WSW 3.5 mph - 0.05 in Rain Light Rain
6:55 PM 46.4 °F 42.4 °F 42.8 °F 87% 30.06 in 10.0 mi West 8.1 mph - 0.06 in Rain Rain
7:15 PM 44.6 °F 40.7 °F 41.0 °F 87% 30.08 in 7.0 mi West 6.9 mph - 0.02 in Rain Rain
7:35 PM 44.6 °F 40.7 °F 41.0 °F 87% 30.07 in 7.0 mi WSW 6.9 mph - 0.05 in Rain Rain
7:55 PM 42.8 °F 40.1 °F 41.0 °F 93% 30.05 in 7.0 mi WSW 4.6 mph - 0.07 in Rain Light Rain
8:15 PM 42.8 °F 38.0 °F 41.0 °F 93% 30.03 in 7.0 mi West 8.1 mph - N/A Rain Light Rain
8:35 PM 42.8 °F 38.0 °F 41.0 °F 93% 30.07 in 10.0 mi WSW 8.1 mph - 0.01 in   Drizzle
8:55 PM 42.8 °F 40.1 °F 39.2 °F 87% 30.06 in 7.0 mi SW 4.6 mph - 0.04 in Rain Rain
9:15 PM 42.8 °F 39.3 °F 41.0 °F 93% 30.06 in 10.0 mi West 5.8 mph - 0.01 in Rain Light Rain
9:55 PM 42.8 °F 37.5 °F 39.2 °F 87% 30.05 in 7.0 mi West 9.2 mph - 0.04 in Rain Rain
10:15 PM 41.0 °F 37.1 °F 37.4 °F 87% 30.04 in 7.0 mi WSW 5.8 mph - 0.03 in Rain Rain
10:35 PM 41.0 °F 39.0 °F 37.4 °F 87% 30.03 in 10.0 mi SSW 3.5 mph - 0.03 in   Drizzle
10:55 PM 41.0 °F 39.0 °F 37.4 °F 87% 30.03 in 10.0 mi SW 3.5 mph - 0.03 in   Overcast
11:15 PM 41.0 °F 39.0 °F 37.4 °F 87% 30.04 in 10.0 mi SW 3.5 mph - N/A   Overcast
11:35 PM 41.0 °F 39.0 °F 37.4 °F 87% 30.04 in 10.0 mi SW 3.5 mph - N/A   Overcast
11:55 PM 41.0 °F 37.1 °F 37.4 °F 87% 30.03 in 10.0 mi WSW 5.8 mph - N/A   Overcast